Regional Weather Roundup
Issued by NWS

Home | Current Version | Previous Version | Text Only | Print | Product List | Glossary Off
Versions: 1 2 3 4 5 6 7 8 9 10 11 12 13 14 15 16 17 18 19 20 21 22 23 24 25 26 27 28 29 30 31 32 33 34 35 36 37 38 39 40 41 42 43 44 45 46 47 48 49 50

000
ASUS45 KBOU 020710
RWRCO

WEATHER ROUNDUP FOR COLORADO
NATIONAL WEATHER SERVICE DENVER/BOULDER CO
100 AM MDT THU JUL 02 2015

NOTE: "FAIR" INDICATES FEW OR NO CLOUDS BELOW 12000 FEET WITH NO
SIGNIFICANT WEATHER AND/OR OBSTRUCTIONS TO VISIBILITY.

COZ001>005-013-030-031-020800-
...NORTHWEST COLORADO...

CITY           SKY/WX    TMP DP  RH WIND       PRES   REMARKS
CRAIG          PTCLDY    66  48  52 CALM      30.17S
HAYDEN         PTCLDY    63  45  51 SE9       30.20S
MEEKER         PTCLDY    61  52  72 VRB3      30.19F
MOUNT WERNER   NOT AVBL
STEAMBOAT SPGS PTCLDY    56  48  73 CALM      30.23F
WALDEN         CLEAR     50  45  81 CALM      30.33F
$$

COZ006>008-011-020800-
...WEST CENTRAL VALLEYS...

CITY           SKY/WX    TMP DP  RH WIND       PRES   REMARKS
GRAND JUNCTION MOCLDY    75  52  44 NE5       30.01S
MONTROSE       CLOUDY    76  49  38 SE8       30.13R
EAGLE          PTCLDY    63  52  67 SE5       30.24S
RIFLE          PTCLDY    71  50  47 CALM      30.11R
DELTA          NOT AVBL
NUCLA          CLOUDY    73  46  38 E13       30.16S
$$

COZ017>023-064>068-020800-
...SOUTHWEST COLORADO...

CITY           SKY/WX    TMP DP  RH WIND       PRES   REMARKS
DURANGO        CLOUDY    65  54  67 E7        30.25R
CORTEZ         PTCLDY    78  46  32 S12       30.15R
PAGOSA SPRINGS CLOUDY    60  48  63 CALM      30.33S
TELLURIDE      CLOUDY    64  43  46 SE5       30.43S
WOLF CREEK PAS NOT AVBL
$$

COZ009-010-012-014-032>034-037-058>063-020800-
...CENTRAL COLORADO...

CITY           SKY/WX    TMP DP  RH WIND       PRES   REMARKS
ASPEN          PTCLDY    60  48  64 SW5       30.31S
BUENA VISTA    MOCLDY    55  53  93 CALM      30.37F
COPPER MTN     PTCLDY    54  43  66 S10       30.65F
BERTHOUD PASS  MOCLDY    45  36  70 W9        30.68F
COTTONWOOD PAS NOT AVBL
GUNNISON       CLOUDY    64  46  52 N3        30.36R
KREMMLING      PTCLDY    59  46  63 CALM      30.29F
LEADVILLE      PTCLDY    47  46  97 E5        30.50S
MONARCH PASS   MOCLDY    50  41  71 N10       30.77R
SALIDA         MOCLDY    62  54  74 SW7       30.41R
SUNLIGHT       PTCLDY    59  45  58 CALM      30.57F
WILKERSON PASS PTCLDY    46  45  93 W10G16    30.61F
$$

COZ069>075-020800-
...SAN LUIS VALLEY/SANGRE DE CRISTO MOUNTAINS...

CITY           SKY/WX    TMP DP  RH WIND       PRES   REMARKS
ALAMOSA        CLOUDY    56  53  90 CALM      30.34F
LA VETA PASS   MOCLDY    48  45  87 MISG      30.50F
SAGUACHE       CLOUDY    55  54  94 NW5       30.37F
$$

COZ035-036-038>040-020800-
...NORTHERN COLORADO FRONT RANGE...

CITY           SKY/WX    TMP DP  RH WIND       PRES   REMARKS
DENVER INTL AP PTCLDY    65  55  70 S14       30.10F
DMNS CITY PARK   N/A     66  56  68 SE9       30.10F
AURORA         MOCLDY    65  54  67 S15       30.13F
FRONT RANGE AP CLEAR     64  57  77 S10G16    30.12F
ERIE MUNI ARPT PTCLDY    62  58  87 SW5       30.08F
BOULDER MUN AP PTCLDY    64  59  82 CALM      30.09F
CENTENNIAL     PTCLDY    64  55  72 S13       30.15F
BROOMFIELD     PTCLDY    64  57  77 S6        30.12F
FORT COLLINS   CLEAR     64  57  77 CALM      30.09F
LONGMONT       CLEAR     63  57  82 SW8       30.09F
$$

COZ041-046-047-076>085-087-088-020800-
...PIKES PEAK/PALMER DIVIDE AND SOUTHERN FOOTHILLS...

CITY           SKY/WX    TMP DP  RH WIND       PRES   REMARKS
COLO. SPRINGS  MOCLDY    62  58  86 SE5       30.24F
A. F. ACADEMY  PTCLDY    58  58 100 CALM      30.25F
ELLICOTT       MOCLDY   N/A N/A N/A S6        30.22F
FALCON         MOCLDY    57  55  94 W5        30.28F
FORT CARSON    MOCLDY    61  58  90 S3        30.21F
LIMON          PTCLDY    61  58  90 S7        30.16F
MONUMENT HILL  PTCLDY    55  52  88 S12       30.26F
TRINIDAD       MOCLDY    62  58  86 W9        30.22S
$$

COZ042>045-048>051-090-091-020800-
...NORTHEAST COLORADO...

CITY           SKY/WX    TMP DP  RH WIND       PRES   REMARKS
GREELEY ARPT   CLEAR     66  61  82 SW5       30.07S
AKRON          CLEAR     66  56  70 S10       30.09F
BURLINGTON     MOCLDY    68  60  75 N9        30.07F
WRAY           CLOUDY    69  56  62 CALM      30.01F
STERLING       CLEAR     63  59  88 W5          N/A
HOLYOKE        CLOUDY    70  54  56 SE7       30.04F
FORT MORGAN    CLEAR     61  57  87 CALM      30.09F
$$

COZ086-089-092>099-020800-
...SOUTHEAST COLORADO...

CITY           SKY/WX    TMP DP  RH WIND       PRES   REMARKS
PUEBLO         MOCLDY    66  62  87 N6        30.15F
LA JUNTA       MOCLDY    67  64  90 W7        30.11F
LAMAR          CLOUDY    67  65  93 W6        30.03F
SPRINGFIELD      N/A     65  64  97 SW5       30.11F
$$



USA.gov is the U.S. government's official web portal to all federal, state and local government web resources and services.